Weather History for Sivas, Turkey

Change the Weather History Date:

Monday, January 7, 2013

  Actual Average Record
Temperature  
Mean Temperature 23 °F -  
Max Temperature 29 °F 34 °F - ()
Min Temperature 17 °F 20 °F - ()
Degree Days  
Heating Degree Days 42    
Moisture  
Dew Point 19 °F    
Average Humidity 92    
Maximum Humidity 100    
Minimum Humidity 57    
Precipitation  
Precipitation 0.12 in 0.05 in - ()
Sea Level Pressure  
Sea Level Pressure 29.45 in    
Wind  
Wind Speed 10 mph ()    
Max Wind Speed 23 mph    
Max Gust Speed -    
Visibility 2.5 miles    
Events Snow    
T = Trace of Precipitation, MM = Missing Value Source: Averaged Metar Reports

Daily Weather History Graph

Daily Weather History Graph

Search for Another Location

Airport:

Trip Planner

Search our weather history database for the weather conditions in past years. The results will help you decide how hot, cold, wet, or windy it might be!

Date:

Astronomy

Jan. 07, 2013 Rise Set
Actual Time 6:53 AM EET 4:23 PM EET
Civil Twilight 6:23 AM EET 4:53 PM EET
Nautical Twilight 5:50 AM EET 5:27 PM EET
Astronomical Twilight 5:17 AM EET 6:00 PM EET
Moon 1:53 AM EET (1/7) 12:18 PM EET (1/7)
Length of Visible Light 10h 30m
Length of Day
9h 30m
Waning Crescent, 26% of the Moon is Illuminated
Jan 7
Waning Crescent
Jan 11
New
Jan 19
First Quarter
Jan 27
Full
Feb 3
Last Quarter

Hourly Weather History & Observations

Time (EET) Temp. Windchill Dew Point Humidity Pressure Visibility Wind Dir Wind Speed Gust Speed Precip Events Conditions
12:50 AM 21.2 °F 13.6 °F 21.2 °F 100% 29.53 in 1.6 mi East 5.8 mph - N/A Snow Light Snow
1:50 AM 21.2 °F 13.6 °F 19.4 °F 93% 29.50 in 3.7 mi ENE 5.8 mph - N/A   Mostly Cloudy
2:00 AM 25 °F - 21 °F 78%  in 9 mi NNE 1.2 mph - -   Partly Cloudy
2:50 AM 19.4 °F - 17.6 °F 93% 29.47 in 6.2 mi Variable 2.3 mph - N/A   Mostly Cloudy
3:50 AM 19.4 °F 12.8 °F 17.6 °F 93% 29.44 in 1.2 mi NW 4.6 mph - N/A Snow Light Snow
4:50 AM 19.4 °F 6.6 °F 17.6 °F 93% 29.42 in 1.9 mi North 12.7 mph - N/A Snow Light Snow
5:50 AM 19.4 °F 6.6 °F 19.4 °F 100% 29.39 in 1.9 mi North 12.7 mph - N/A Snow Light Snow
6:50 AM 21.2 °F 6.8 °F 21.2 °F 100% 29.39 in 1.9 mi NNE 17.3 mph - N/A Snow Light Snow
8:00 AM 26 °F - 23 °F 85%  in 1 mi NE 3.5 mph - - Snow Light Snow
8:50 AM 23.0 °F 9.6 °F 21.2 °F 93% 29.39 in 0.9 mi North 16.1 mph - N/A Snow Light Snow
9:50 AM 23.0 °F 11.1 °F 21.2 °F 93% 29.42 in 0.9 mi North 12.7 mph - N/A Snow Light Snow
10:50 AM 23.0 °F 10.1 °F 21.2 °F 93% 29.39 in 0.6 mi North 15.0 mph - N/A Snow Light Snow
11:50 AM 23.0 °F 10.1 °F 21.2 °F 93% 29.39 in 0.7 mi North 15.0 mph - N/A Snow Light Snow
12:50 PM 21.2 °F 6.4 °F 21.2 °F 100% 29.39 in 0.4 mi North 18.4 mph - N/A Snow Light Snow
1:50 PM 21.2 °F 6.4 °F 19.4 °F 93% 29.39 in - North 18.4 mph - N/A Snow Snow
2:00 PM 27 °F - 22 °F 75%  in 2 mi NNE 2.3 mph - - Snow Light Snow
2:50 PM 21.2 °F 6.0 °F 19.4 °F 93% 29.42 in 0.5 mi North 19.6 mph - N/A Snow Light Snow
3:50 PM 19.4 °F 3.2 °F 19.4 °F 100% 29.42 in 0.6 mi North 20.7 mph - N/A Snow Light Snow
4:50 PM 19.4 °F 2.5 °F 17.6 °F 93% 29.44 in 0.7 mi North 23.0 mph - N/A Snow Light Snow
5:50 PM 19.4 °F 2.8 °F 17.6 °F 93% 29.47 in - North 21.9 mph - N/A Snow Light Snow
6:50 PM 19.4 °F 2.8 °F 17.6 °F 93% 29.47 in - NNW 21.9 mph - N/A Snow Light Snow
7:50 PM 17.6 °F 0.5 °F 17.6 °F 100% 29.47 in 1.8 mi NNW 21.9 mph - N/A Snow Light Snow
8:00 PM 24 °F - 15 °F 57%  in 9 mi ENE 2.3 mph - -   Partly Cloudy
8:50 PM 17.6 °F 1.3 °F 15.8 °F 93% 29.50 in - NNW 19.6 mph - N/A Snow Light Snow
9:50 PM 17.6 °F 3.2 °F 15.8 °F 93% 29.53 in 3.1 mi NNW 15.0 mph - N/A Snow Light Snow
10:50 PM 17.6 °F 3.7 °F 15.8 °F 93% 29.53 in 3.7 mi NNW 13.8 mph - N/A Snow Light Snow
11:50 PM 17.6 °F 3.2 °F 15.8 °F 93% 29.53 in 3.1 mi NNW 15.0 mph - N/A Snow Light Snow